Skip Page Navigation
NASA JPL Caltech
NASA Logo - Jet Propulsion Laboratory + View the NASA Portal
+ Near-Earth Object (NEO) Program
Search JPL
JPL Home Earth Solar System Stars & Galaxies Technology
JPL Solar System Dynamics
BODIES ORBITS EPHEMERIDES TOOLS PHYSICAL DATA DISCOVERY FAQ SITE MAP
JPL Small-Body Database Browser
Search: [ help ]  
12432 Usuda (1996 AR1)
Classification: Main-belt Asteroid          SPK-ID: 2012432
Ephemeris | Orbit Diagram | Orbital Elements | Physical Parameters | Discovery Circumstances ]

[ hide orbit diagram ]
Orbit Diagram
Note: Make sure you have Java enabled on your browser to see the applet. This applet is provided as a 3D orbit visualization tool. The applet was implemented using 2-body methods, and hence should not be used for determining accurate long-term trajectories (over several years or decades) or planetary encounter circumstances. For accurate long-term ephemerides, please instead use our Horizons system.
Orbit Viewer

Additional Notes: the orbits shown in the applet are color coded. The planets are white lines, and the asteroid/comet is a blue line. The bright white line indicates the portion of the orbit that is above the ecliptic plane, and the darker portion is below the ecliptic plane. Likewise for the asteroid/comet orbit, the light blue indicates the portion above the ecliptic plane, and the dark blue the portion below the ecliptic plane.

Orbit Viewer applet originally written and kindly provided by Osamu Ajiki (AstroArts), and further modified by Ron Baalke (JPL).


Orbital Elements at Epoch 2456400.5 (2013-Apr-18.0) TDB
Reference: JPL 1 (heliocentric ecliptic J2000)
 Element Value Uncertainty (1-sigma)   Units 
e .03912135374208427 8.3597e-08  
a 3.050145195246391 4.2112e-08 AU
q 2.930819386098439 2.4704e-07 AU
i 9.357364766642329 8.5792e-06 deg
node 306.6536242398756 5.56e-05 deg
peri 100.5535253328295 0.00013735 deg
M 168.497736398563 0.0001239 deg
tp 2455489.809581779428
(2010-Oct-20.30958178)
0.00066944 JED
period 1945.714865770753
5.33
4.0295e-05
1.103e-07
d
yr
n .1850219712729562 3.8318e-09 deg/d
Q 3.169471004394344 4.3759e-08 AU
  Orbit Determination Parameters
   # obs. used (total)      640  
   data-arc span      7185 days (19.67 yr)  
   first obs. used      1993-08-16  
   last obs. used      2013-04-18  
   planetary ephem.      DE405  
   SB-pert. ephem.      SB405-CPV-2  
   condition code      0  
   fit RMS      .54838  
   data source      ORB  
   producer      Otto Matic  
   solution date      2013-Apr-29 13:48:31  

Additional Information
 Earth MOID = 1.95905 AU 
 T_jup = 3.216 
[ show covariance matrix ]

Ephemeris | Orbit Diagram | Orbital Elements | Physical Parameters | Discovery Circumstances ]

Physical Parameter Table
Parameter Symbol Value Units Sigma Reference Notes
absolute magnitude H 13.0 mag n/a PDS3 (MPC 36721)  

12432 Usuda           Discovered 1996 Jan. 12 by N. Sato and T. Urata at Chichibu.
The Usuda Deep Space Center of the Japan Aerospace Exploration Agency, located in Saku city, Nagano prefecture, conducts command operations and receives telemetry and data from deep-space explorers such as Hayabusa and Kaguya. The site features a parabolic antenna of diameter 64 meters and weight 1980 tons.
NOTE: some special characters may not display properly (any characters within {} are an attempt to place the proper accent above a character)
Reference: 20091202/MPCPages.arcLast Updated: 2010-04-12

Alternate Designations
 1996 AR1 = 1998 MY41 
Ephemeris | Orbit Diagram | Orbital Elements | Physical Parameters | Discovery Circumstances ]
ABOUT SSD CREDITS/AWARDS PRIVACY/COPYRIGHT GLOSSARY LINKS
FirstGov 2013-May-24 09:05 UT
(server date/time)  
NASA Home Page
Site Manager:   Donald K. Yeomans
Webmaster  Alan B. Chamberlin